Temp
-4 -4 -4 -4 -5 -5 -6 -6 -9 -7 -8 -9 -9 -8 -9 -9 -9 -8 -9 -9 -8 -8 -7 -7 -7 -3 -1 -1 -1 -1 -1 -1 -2 -2 -0 0 1 1 1 2 2 2 3 3
-5 -5 -4 -5 -5 -5 -6 -7 -8 -8 -8 -9 -8 -9 -9 -8 -9 -9 -8 -8 -7 -7 -6 -7 -6 -4 -3 -2 -2 -1 -1 -1 -1 -2 -1 -1 -0 0 0 -0 -0 1 3 3
-5 -5 -5 -5 -6 -6 -7 -7 -8 -9 -9 -9 -9 -9 -8 -8 -8 -8 -8 -7 -7 -7 -7 -6 -6 -5 -5 -4 -4 -3 -2 -2 -1 0 1 -0 -0 -1 -1 -0 1 1 2 3
-5 -5 -6 -6 -6 -6 -7 -7 -8 -8 -10 -9 -9 -9 -8 -8 -7 -7 -8 -7 -8 -7 -7 -7 -7 -6 -5 -4 -3 -2 -3 -3 -2 -2 -1 -0 -1 -1 -1 -1 -0 0 1 1
-6 -6 -6 -6 -7 -7 -8 -8 -9 -9 -10 -9 -9 -8 -9 -9 -8 -8 -8 -8 -7 -7 -7 -8 -7 -7 -6 -5 -5 -3 -3 -2 -2 -1 -1 -1 -1 -1 -1 -1 -0 0 1 -1
-6 -6 -6 -7 -7 -8 -8 -8 -8 -9 -9 -9 -9 -9 -8 -8 -9 -8 -8 -8 -6 -6 -6 -6 -6 -6 -6 -6 -6 -5 -4 -3 -2 -2 -2 -1 -1 -1 -1 -1 -3 -3 -3 -3
-7 -7 -7 -7 -8 -8 -8 -8 -9 -10 -9 -9 -9 -9 -8 -8 -7 -7 -8 -7 -6 -6 -5 -5 -6 -5 -5 -5 -5 -5 -4 -4 -2 -2 -2 -1 -2 -2 -2 -3 -4 -4 -4 -4
-7 -7 -7 -7 -8 -8 -8 -9 -9 -10 -11 -10 -10 -9 -9 -8 -8 -8 -7 -6 -6 -5 -5 -5 -4 -4 -5 -4 -5 -5 -4 -3 -3 -1 -0 -2 -3 -4 -4 -3 -5 -4 -4 -4
-7 -7 -7 -8 -8 -8 -9 -9 -9 -9 -10 -9 -9 -9 -9 -9 -8 -8 -8 -6 -6 -6 -6 -5 -4 -4 -4 -3 -3 -4 -4 -4 -2 -2 -1 -2 -5 -5 -5 -4 -5 -5 -5 -4
-8 -8 -8 -8 -8 -8 -9 -9 -10 -10 -10 -10 -10 -10 -10 -10 -10 -9 -8 -6 -6 -6 -7 -5 -4 -4 -4 -3 -3 -4 -4 -4 -3 -3 -1 -5 -5 -4 -4 -4 -6 -7 -6 -5
-8 -8 -8 -8 -9 -9 -9 -10 -10 -10 -10 -9 -9 -9 -10 -10 -10 -10 -9 -8 -8 -6 -8 -7 -7 -6 -6 -5 -5 -5 -5 -5 -4 -3 -3 -4 -5 -5 -5 -7 -7 -7 -7 -6
-9 -9 -9 -9 -9 -9 -9 -10 -10 -10 -9 -9 -9 -9 -9 -9 -9 -10 -10 -10 -10 -9 -9 -8 -8 -7 -6 -6 -5 -6 -6 -7 -7 -7 -7 -7 -6 -7 -7 -7 -7 -7 -6 -6
-9 -9 -9 -9 -9 -9 -10 -11 -10 -10 -9 -10 -9 -9 -9 -9 -9 -9 -10 -10 -9 -9 -9 -9 -8 -7 -7 -7 -7 -7 -8 -7 -7 -7 -7 -8 -7 -7 -7 -7 -7 -7 -7 -7
-9 -9 -9 -9 -9 -10 -10 -10 -10 -10 -10 -10 -10 -9 -9 -9 -9 -9 -9 -9 -9 -9 -9 -9 -9 -8 -8 -8 -8 -7 -8 -7 -7 -8 -8 -8 -7 -7 -7 -7 -7 -7 -7 -7
-9 -9 -9 -9 -10 -10 -10 -10 -10 -10 -10 -10 -10 -9 -9 -9 -9 -9 -9 -9 -9 -10 -10 -9 -9 -8 -9 -8 -8 -8 -7 -8 -8 -7 -8 -8 -8 -8 -8 -8 -8 -8 -8 -7
-10 -10 -10 -10 -10 -10 -11 -10 -10 -10 -10 -10 -10 -9 -9 -9 -9 -9 -9 -9 -9 -10 -10 -9 -9 -9 -9 -8 -8 -7 -7 -8 -8 -8 -8 -8 -8 -8 -8 -8 -8 -8 -7 -7
-10 -10 -10 -10 -11 -11 -10 -10 -9 -9 -10 -10 -10 -9 -8 -9 -9 -9 -9 -9 -9 -10 -10 -10 -9 -9 -9 -9 -8 -7 -8 -7 -7 -8 -8 -8 -8 -8 -8 -8 -8 -7 -7 -7
-11 -10 -11 -11 -11 -10 -10 -10 -10 -9 -10 -10 -10 -9 -9 -9 -9 -9 -9 -9 -9 -10 -10 -9 -9 -9 -9 -9 -7 -7 -7 -7 -8 -8 -8 -8 -8 -8 -8 -8 -8 -7 -7 -7
-11 -11 -11 -11 -11 -10 -10 -10 -10 -10 -10 -10 -10 -9 -10 -9 -9 -9 -9 -10 -10 -10 -10 -10 -9 -9 -9 -9 -8 -7 -7 -7 -8 -8 -8 -8 -8 -8 -8 -8 -8 -8 -8 -8
-11 -11 -12 -11 -10 -10 -10 -10 -10 -10 -10 -10 -9 -9 -9 -9 -9 -10 -10 -10 -10 -10 -9 -10 -10 -9 -9 -9 -8 -8 -8 -8 -8 -8 -8 -8 -8 -8 -8 -8 -8 -8 -8 -8
-12 -12 -12 -11 -11 -11 -10 -10 -10 -10 -10 -9 -8 -9 -9 -9 -9 -9 -9 -10 -10 -10 -9 -10 -10 -9 -8 -8 -8 -7 -8 -8 -8 -8 -9 -9 -8 -8 -9 -9 -9 -9 -9 -9
-12 -12 -11 -11 -11 -10 -10 -10 -10 -10 -9 -9 -8 -8 -10 -9 -9 -10 -10 -10 -10 -10 -9 -10 -9 -9 -8 -8 -8 -8 -7 -8 -8 -8 -9 -9 -9 -9 -10 -10 -10 -10 -10 -11
-13 -12 -11 -10 -11 -10 -10 -10 -10 -10 -9 -8 -8 -8 -8 -9 -10 -9 -9 -9 -10 -9 -9 -9 -8 -7 -7 -7 -7 -7 -8 -8 -9 -9 -9 -9 -10 -10 -10 -10 -10 -11 -11 -11
-13 -11 -11 -11 -10 -9 -9 -9 -9 -9 -8 -8 -7 -8 -8 -9 -10 -9 -9 -9 -9 -9 -9 -8 -7 -7 -7 -7 -8 -8 -8 -9 -9 -9 -9 -10 -10 -10 -11 -11 -11 -12 -12 -13
-12 -11 -10 -10 -10 -9 -8 -8 -8 -8 -9 -8 -8 -8 -9 -10 -9 -9 -9 -9 -9 -9 -8 -7 -7 -7 -8 -8 -8 -8 -8 -9 -9 -9 -10 -10 -10 -11 -11 -12 -12 -13 -13 -14
-12 -11 -10 -9 -9 -8 -8 -8 -8 -8 -9 -9 -9 -10 -9 -9 -9 -9 -9 -9 -8 -7 -7 -7 -7 -7 -8 -8 -8 -8 -8 -9 -10 -10 -11 -11 -11 -12 -12 -12 -13 -14 -15 -15
-12 -10 -10 -9 -8 -8 -8 -8 -8 -8 -9 -9 -9 -9 -9 -9 -9 -9 -9 -8 -7 -6 -7 -7 -7 -8 -8 -8 -8 -9 -9 -10 -10 -11 -11 -11 -12 -12 -13 -14 -15 -16 -17 -17
Height
3026 3028 3029 3028 3028 3026 3026 3024 3023 3019 3017 3018 3016 3015 3012 3008 3005 3002 2996 2989 2978 2972 2966 2961 2957 2954 2959 2964 2968 2970 2971 2971 2975 2977 2981 2982 2986 2988 2991 2990 2992 2992 2991 2991
3022 3024 3025 3024 3024 3024 3023 3022 3020 3017 3017 3019 3017 3015 3013 3009 3003 3000 2994 2987 2982 2974 2966 2962 2955 2957 2960 2966 2969 2970 2972 2972 2974 2978 2981 2981 2984 2987 2990 2991 2992 2993 2992 2994
3017 3020 3021 3020 3020 3022 3021 3020 3018 3017 3017 3015 3015 3013 3012 3009 3004 3001 2996 2991 2985 2977 2970 2964 2958 2959 2962 2965 2965 2968 2972 2971 2972 2970 2972 2979 2983 2987 2991 2992 2993 2993 2992 2991
3013 3015 3017 3017 3017 3018 3019 3018 3016 3015 3017 3017 3014 3013 3012 3009 3005 3003 2998 2994 2990 2983 2976 2967 2963 2962 2966 2968 2967 2971 2972 2972 2972 2972 2973 2979 2984 2988 2991 2993 2994 2995 2994 2993
3007 3010 3012 3013 3015 3015 3016 3016 3017 3015 3016 3015 3014 3013 3011 3009 3007 3004 3000 2998 2994 2989 2985 2977 2973 2971 2971 2973 2974 2973 2973 2976 2977 2978 2980 2983 2987 2991 2993 2995 2996 2995 2994 2993
3003 3006 3007 3010 3011 3012 3013 3013 3013 3014 3016 3016 3016 3014 3011 3009 3007 3006 3005 3000 2995 2992 2987 2984 2981 2980 2978 2978 2978 2976 2976 2980 2982 2984 2985 2988 2991 2993 2994 2996 2993 2995 2995 2995
2999 3001 3003 3006 3007 3009 3010 3011 3012 3015 3016 3016 3015 3012 3012 3011 3009 3006 3004 3000 2998 2995 2991 2988 2986 2985 2984 2983 2981 2982 2983 2983 2983 2985 2986 2987 2994 2995 2997 2995 2995 2996 2995 2993
2994 2997 2999 3002 3004 3006 3007 3009 3010 3012 3012 3014 3013 3011 3011 3011 3010 3008 3006 3003 3000 2997 2994 2992 2991 2989 2989 2989 2986 2985 2985 2986 2986 2986 2984 2992 2995 2997 2998 2995 2996 2996 2995 2993
2990 2993 2996 2998 3000 3003 3005 3006 3008 3009 3011 3014 3010 3010 3010 3011 3009 3009 3007 3004 3001 2999 2998 2996 2994 2994 2992 2991 2990 2989 2988 2987 2988 2986 2986 2989 2994 2995 2995 2996 2997 2996 2995 2994
2985 2989 2992 2995 2997 3000 3002 3004 3006 3008 3009 3011 3009 3011 3009 3009 3009 3008 3007 3003 3002 3001 3000 2999 2998 2996 2996 2993 2992 2992 2991 2990 2989 2989 2987 2992 2994 2993 2992 2995 3002 2996 2995 2994
2981 2985 2988 2991 2995 2997 3000 3003 3004 3006 3007 3008 3007 3007 3007 3008 3009 3009 3006 3005 3002 3001 3001 3001 3001 2999 2998 2996 2996 2995 2994 2993 2992 2991 2991 2994 2995 2994 2994 2998 2997 2997 2995 2994
2977 2981 2984 2988 2992 2994 2997 3000 3002 3004 3006 3008 3007 3006 3006 3006 3006 3005 3006 3007 3006 3003 3003 3003 3003 3002 3001 2999 2995 2997 2998 2998 2998 2998 2998 2997 2997 2997 2997 2997 2997 2996 2995 2994
2972 2977 2981 2985 2988 2991 2995 2997 3000 3003 3005 3006 3006 3006 3006 3005 3005 3004 3006 3007 3006 3006 3005 3004 3004 3003 3003 3001 3000 3000 3000 2999 2999 3000 2998 2997 2997 2997 2997 2997 2997 2996 2995 2994
2968 2973 2978 2982 2985 2989 2992 2995 2999 3001 3004 3005 3006 3005 3005 3004 3004 3003 3004 3004 3005 3006 3007 3006 3005 3005 3004 3003 3002 3002 3002 3000 2999 2999 2998 2998 2998 2998 2997 2997 2996 2995 2995 2994
2964 2970 2974 2978 2983 2987 2991 2994 2997 3000 3004 3004 3004 3004 3004 3004 3003 3003 3003 3003 3004 3005 3007 3006 3006 3005 3004 3003 3002 3001 3001 3000 3000 2998 2997 2997 2997 2996 2996 2996 2995 2995 2994 2993
2961 2967 2972 2976 2980 2985 2989 2993 2996 2998 3000 3003 3003 3003 3003 3004 3003 3003 3003 3002 3003 3004 3005 3005 3004 3004 3006 3003 3002 3001 3000 2999 2998 2997 2996 2996 2996 2996 2996 2996 2995 2994 2993 2991
2957 2963 2969 2974 2979 2983 2987 2992 2994 2996 2999 3001 3002 3001 3000 3001 3001 3002 3001 3002 3002 3003 3004 3003 3004 3003 3002 3002 3001 2999 2998 2997 2997 2996 2996 2996 2996 2995 2995 2994 2993 2992 2991 2989
2955 2961 2966 2973 2977 2982 2985 2989 2992 2994 2997 2999 3000 2999 2999 2999 2999 3000 3000 3001 3001 3002 3002 3001 3001 3000 3000 2998 2997 2997 2997 2996 2996 2996 2995 2995 2994 2993 2993 2992 2991 2989 2988 2986
2953 2959 2965 2971 2975 2979 2983 2987 2990 2992 2997 2995 2996 2997 2998 2997 2998 2999 3000 3000 3000 3000 2998 2998 2999 2997 2996 2994 2994 2995 2995 2995 2995 2994 2994 2993 2992 2991 2990 2989 2987 2985 2983 2982
2951 2957 2964 2967 2971 2977 2982 2985 2987 2990 2991 2991 2991 2994 2995 2998 2997 2997 3000 2999 2998 2997 2995 2994 2992 2993 2990 2990 2990 2991 2992 2992 2992 2991 2991 2990 2989 2987 2986 2985 2984 2982 2980 2977
2948 2955 2961 2966 2971 2976 2979 2981 2983 2984 2986 2986 2988 2991 2992 2995 2996 2997 2997 2997 2996 2995 2994 2992 2989 2986 2984 2985 2986 2987 2988 2988 2988 2988 2987 2986 2985 2984 2983 2982 2980 2978 2976 2974
2948 2954 2960 2966 2969 2971 2975 2976 2978 2978 2981 2980 2983 2987 2990 2991 2994 2995 2995 2995 2994 2992 2991 2989 2986 2982 2982 2982 2982 2983 2984 2984 2984 2984 2983 2983 2982 2981 2980 2979 2977 2975 2973 2971
2949 2954 2957 2959 2963 2965 2966 2965 2969 2971 2973 2975 2980 2983 2985 2988 2991 2993 2994 2993 2992 2990 2988 2985 2980 2980 2979 2979 2979 2980 2981 2981 2982 2982 2981 2981 2980 2979 2977 2976 2974 2972 2970 2967
2947 2950 2952 2953 2954 2955 2956 2961 2965 2967 2969 2975 2978 2979 2982 2984 2988 2990 2990 2990 2988 2987 2984 2981 2978 2978 2978 2978 2979 2979 2980 2980 2980 2980 2980 2979 2978 2977 2975 2973 2971 2969 2966 2963
2944 2946 2945 2945 2947 2950 2954 2958 2961 2963 2968 2972 2975 2978 2981 2982 2986 2986 2987 2986 2984 2982 2979 2977 2977 2976 2976 2976 2977 2978 2978 2979 2979 2979 2978 2977 2976 2975 2973 2970 2967 2964 2962 2959
2939 2939 2938 2940 2946 2948 2951 2954 2958 2961 2965 2969 2973 2975 2978 2980 2981 2982 2981 2981 2978 2977 2975 2975 2975 2975 2975 2976 2977 2977 2978 2978 2978 2977 2977 2975 2973 2971 2969 2967 2964 2961 2958 2954
2935 2934 2935 2937 2941 2946 2950 2952 2955 2958 2962 2965 2969 2972 2974 2976 2976 2976 2976 2974 2975 2975 2974 2974 2974 2975 2976 2977 2977 2978 2978 2978 2978 2976 2975 2973 2971 2969 2966 2963 2959 2956 2952 2949
Wind_Speed
12 11 10 10 10 10 10 9 4 9 9 12 12 11 13 17 16 16 16 23 29 27 32 19 11 5 18 18 18 19 11 7 18 23 16 14 17 14 13 8 6 3 5 4
14 11 10 9 9 8 6 5 4 7 6 4 8 11 11 16 19 14 17 23 24 36 22 11 13 12 10 19 14 14 15 8 17 11 12 11 15 11 9 6 3 6 3 4
14 12 9 8 8 6 3 3 3 3 4 6 9 11 13 18 12 12 17 26 31 34 29 19 31 14 15 10 7 11 10 10 11 7 16 20 13 11 9 5 6 3 7 10
16 14 10 8 9 5 3 2 2 1 1 2 8 10 11 15 15 15 22 22 25 30 31 30 35 24 13 9 15 13 5 8 8 11 15 16 13 11 7 4 1 3 8 10
17 14 11 9 9 5 5 1 2 1 2 2 6 9 9 11 12 14 20 21 20 22 23 24 24 21 18 8 3 11 14 9 11 15 14 13 11 6 1 1 2 6 7 9
18 15 12 11 9 8 7 4 1 2 4 2 3 4 9 11 13 8 14 18 16 19 22 15 13 13 14 12 9 9 17 8 7 6 7 9 9 6 5 5 8 8 11 8
18 16 14 12 9 10 9 8 4 1 1 2 4 5 5 7 8 11 14 14 14 15 13 11 13 16 17 11 5 9 5 3 2 5 6 4 7 7 5 6 8 8 8 8
20 18 16 13 11 11 12 11 8 4 4 5 5 6 5 6 8 9 10 11 12 13 9 7 2 4 6 10 12 7 6 4 4 3 6 13 9 7 5 4 5 7 8 10
21 19 17 15 12 13 14 13 9 6 2 1 6 3 5 5 8 7 10 11 10 11 9 8 6 5 8 7 4 10 9 6 2 4 5 3 8 5 11 4 1 5 10 10
21 20 18 16 14 13 14 14 11 8 6 3 1 3 4 4 5 7 11 9 7 7 9 7 6 5 5 5 6 8 7 8 7 4 2 4 3 9 3 4 4 11 9 10
22 21 19 16 15 15 13 13 11 9 8 5 5 4 2 4 4 6 12 5 7 5 7 5 5 5 5 4 6 6 6 6 7 2 1 3 1 10 4 3 5 6 7 9
22 21 20 18 17 15 15 15 13 11 7 3 4 5 5 6 6 7 2 3 5 5 6 5 3 3 3 4 2 8 4 6 4 5 2 5 9 8 6 4 4 5 6 8
23 22 21 19 18 18 16 15 14 8 4 2 3 4 3 3 4 4 2 3 2 3 3 4 2 3 4 4 4 4 6 5 2 4 3 4 6 5 4 5 5 6 8 9
23 22 22 19 19 19 18 17 14 10 8 5 3 4 2 5 4 3 7 10 8 5 2 3 2 3 5 4 5 4 3 4 2 5 6 6 6 5 5 7 6 6 8 8
24 23 23 20 19 20 18 12 15 11 8 3 1 4 6 1 3 0 3 7 8 7 5 5 4 4 5 4 5 5 3 4 1 7 8 8 8 6 5 4 5 7 7 7
22 23 22 21 21 22 19 14 15 13 14 17 10 7 10 9 8 8 6 3 6 8 8 8 8 7 4 4 5 7 5 6 5 4 5 5 5 3 3 6 7 7 9 10
24 23 21 20 20 22 22 13 13 14 10 13 10 9 11 13 13 12 8 4 4 5 8 10 9 11 10 9 8 10 8 5 5 6 6 5 7 8 9 9 8 10 12 14
24 24 22 26 30 23 22 18 9 10 13 13 8 8 8 5 6 7 6 7 6 7 9 12 10 11 12 7 9 6 4 4 4 6 7 8 8 8 9 12 14 14 14 14
26 24 27 30 30 25 21 17 16 13 13 8 10 10 6 4 8 7 5 6 7 9 13 13 7 9 8 13 11 8 5 6 10 11 11 11 12 13 13 15 15 15 16 16
29 26 29 22 31 15 21 20 18 17 17 17 13 12 12 6 5 4 4 4 6 7 9 8 13 15 21 20 20 16 16 16 16 15 14 14 13 13 13 14 14 14 15 16
32 31 20 18 25 16 20 14 15 15 13 18 22 19 15 9 7 6 5 5 4 3 5 4 5 8 13 15 19 19 18 16 15 14 13 12 12 12 12 12 13 13 13 13
35 26 18 19 24 11 12 12 11 9 13 18 13 16 19 19 14 7 4 5 4 5 6 4 5 13 9 10 9 10 11 12 11 10 9 9 9 10 10 10 10 12 14 16
24 27 29 16 17 12 13 16 17 15 21 20 14 19 17 17 14 8 4 5 6 5 5 4 11 9 8 5 7 7 7 7 7 7 8 8 9 9 10 13 16 18 20 21
30 16 18 12 12 17 16 20 21 24 24 18 8 15 14 14 14 8 5 6 5 4 5 8 12 8 7 5 4 3 3 3 4 5 5 6 8 11 14 17 19 21 22 23
18 13 12 26 15 14 24 22 16 17 17 17 15 13 14 15 7 7 6 4 5 5 7 10 7 5 3 3 3 2 2 3 2 4 7 10 12 14 17 19 22 24 25 26
17 9 13 25 32 22 14 22 21 16 17 18 16 14 8 9 7 8 9 5 6 6 6 6 5 3 3 3 3 3 2 2 4 7 9 12 15 18 21 23 24 25 25 24
12 10 15 22 30 31 15 17 18 16 21 23 15 11 9 7 8 9 11 15 10 7 7 5 5 6 7 7 5 2 2 5 8 10 12 15 17 19 21 21 22 22 21 22
Wind_Direction
245 263 282 302 309 325 336 351 345 352 5 29 8 355 354 339 339 335 321 313 316 312 323 311 299 86 163 181 196 213 218 213 179 196 199 217 203 203 202 225 187 234 319 52
244 256 273 288 302 315 335 358 343 3 29 33 12 353 3 351 338 343 323 336 354 0 349 313 300 94 112 169 174 199 204 218 178 181 180 177 175 183 188 196 131 189 214 109
241 251 262 273 287 297 317 335 12 338 33 23 19 357 8 4 23 23 20 13 3 3 1 23 29 97 113 134 158 169 179 201 199 249 178 175 175 159 175 181 197 182 235 329
238 244 246 256 265 272 259 353 30 20 165 311 25 13 4 10 22 23 22 9 5 359 1 9 17 55 119 132 151 163 120 119 105 99 130 158 159 146 151 154 259 282 329 344
234 242 246 244 250 239 225 265 80 302 267 295 8 359 4 6 11 3 9 3 10 2 2 0 5 19 52 89 232 158 108 91 93 94 107 123 124 122 165 268 296 289 290 28
231 232 234 235 231 219 222 218 136 170 252 303 334 306 5 11 357 9 351 351 5 2 3 27 19 39 49 62 31 65 114 79 124 109 114 126 109 74 73 105 52 33 20 353
228 230 231 232 230 219 220 214 195 234 200 279 276 297 335 352 356 348 348 353 3 0 6 42 17 72 58 36 54 71 86 81 76 128 147 156 94 75 83 97 46 16 5 335
224 226 228 228 226 217 218 211 210 182 247 280 291 295 311 341 334 331 338 344 353 356 27 37 11 350 35 46 57 50 73 66 91 135 99 125 110 50 30 349 17 9 7 22
222 226 227 227 226 221 211 209 206 211 146 190 275 325 326 339 328 331 329 331 348 356 4 5 359 34 337 14 60 42 39 45 94 133 143 150 74 27 334 279 113 350 356 11
221 223 223 224 225 227 209 206 200 203 210 236 251 255 261 310 322 321 325 336 348 350 25 3 355 29 343 15 25 13 26 42 47 75 76 88 78 350 75 250 357 360 356 4
220 222 223 223 222 221 208 199 199 206 210 223 232 264 299 300 306 310 306 354 339 350 33 26 358 347 2 350 35 13 12 353 36 355 345 89 165 346 75 41 28 6 2 359
218 219 221 221 219 214 208 195 202 207 213 219 222 289 290 308 301 290 320 321 0 354 27 341 26 336 339 327 59 24 14 38 13 27 347 324 354 24 43 53 34 22 11 3
218 217 218 219 215 211 204 190 199 190 196 254 289 255 276 314 329 278 201 275 167 14 356 344 22 10 349 340 23 8 345 10 311 339 331 340 336 328 341 356 343 331 329 329
218 215 215 215 211 207 205 196 188 185 225 271 284 257 279 329 288 288 222 216 209 220 315 330 19 328 345 311 316 318 307 313 256 265 263 292 311 315 307 313 318 325 332 339
215 209 209 211 206 202 201 199 192 189 207 208 230 303 242 334 44 293 317 240 235 239 275 266 283 315 328 315 299 257 336 355 240 246 274 276 288 299 290 305 318 318 323 337
209 204 206 205 199 195 195 201 199 200 212 258 261 261 249 252 273 318 305 286 239 237 260 265 276 274 290 307 298 269 304 335 354 337 311 290 263 256 279 315 322 328 329 326
200 198 198 193 179 189 193 211 224 211 216 232 262 271 264 253 258 283 284 269 227 219 247 259 263 272 282 268 268 288 289 301 321 325 318 292 278 286 294 306 317 324 324 321
193 191 186 181 183 188 207 214 219 201 221 230 230 245 265 274 250 241 246 242 246 239 245 267 266 269 270 263 272 282 294 300 329 345 342 328 313 302 302 311 311 310 313 314
184 186 180 185 189 200 204 187 203 212 214 211 222 218 259 246 256 246 255 259 271 267 265 270 256 247 237 246 262 260 261 300 308 311 312 313 308 307 306 305 305 309 314 319
177 178 181 191 196 201 182 193 219 220 220 231 240 231 235 246 287 254 247 257 254 278 295 260 244 243 243 248 254 260 273 287 297 297 296 299 301 305 308 305 305 311 314 316
175 168 187 197 195 196 187 196 201 201 219 241 240 233 238 239 237 253 248 250 251 263 267 244 261 262 259 255 253 258 266 276 285 287 288 289 296 298 298 300 305 310 312 314
170 174 166 176 177 185 197 193 196 207 221 236 230 232 222 241 233 244 246 249 247 245 264 253 253 262 288 259 255 247 254 267 275 277 278 288 294 301 307 311 315 318 319 321
172 169 173 179 178 189 201 197 203 213 223 237 241 227 227 226 217 221 225 241 240 251 243 245 250 283 284 266 233 241 250 256 269 284 296 302 306 312 319 319 317 315 315 315
186 171 203 200 184 206 210 210 228 228 241 236 244 220 212 208 198 204 224 232 239 245 239 248 274 287 280 272 259 240 261 281 296 302 305 309 312 314 316 317 317 316 315 315
175 206 190 209 203 202 218 218 224 242 237 221 223 211 199 183 183 201 220 231 230 234 245 273 292 281 238 204 202 224 261 282 298 311 313 314 314 316 319 321 321 319 317 315
202 224 212 209 216 225 232 220 223 238 212 207 208 186 186 190 193 203 208 223 229 239 276 256 245 214 188 182 185 172 193 255 290 304 311 318 324 324 321 318 315 311 308 306
227 207 195 200 209 212 231 214 217 210 197 196 181 181 189 193 205 213 213 227 243 254 261 241 230 194 176 167 169 191 279 306 311 314 317 317 316 313 311 311 312 312 313 312